Dewpoint
1 2 1 2 2 2 2 2 2 2 1 1 1 3 4 5 6 7 8 8 7 5 -4 2 2 2 1 2 2 0 1 3 1 -2 -2 -1 -3 -2 -3 -2 -1 -1 -4 -5 -4 -1 0
2 2 2 2 1 1 2 1 2 1 1 2 2 3 3 4 5 7 8 8 7 5 -4 2 2 1 2 1 0 -1 -6 3 2 -1 -2 -1 -2 -0 -2 -2 -1 -4 -1 -1 -1 -2 -2
1 1 1 1 1 1 1 1 1 0 1 1 1 2 3 3 6 6 7 8 6 1 -0 2 2 0 3 1 0 1 -4 -3 -1 -1 -1 -0 -0 -1 -2 -3 -3 -1 -0 -3 -3 -2 -1
1 1 1 1 1 0 -0 1 -0 0 1 1 2 2 2 -1 5 6 6 7 5 -0 1 2 2 2 2 0 -1 -3 -3 -3 -1 -2 -2 -1 0 0 -0 -2 -2 -3 -3 1 -6 -5 -2
1 1 0 1 -0 0 -0 -2 -0 -0 0 1 1 1 2 0 3 6 6 6 2 -0 1 0 1 2 1 -0 -1 -3 -2 -1 1 -1 -1 -0 -0 0 0 1 1 -1 -1 -2 -2 -4 -3
1 0 -0 1 -1 -1 -1 0 -0 -0 -1 0 0 0 -1 2 -1 6 6 5 1 0 1 2 2 1 1 -1 -2 -1 -1 -1 -0 0 1 1 1 1 1 2 2 -0 2 -1 -2 -4 -2
0 0 0 1 -1 -1 -2 -1 -2 -0 -0 -1 -2 -1 -3 3 2 6 6 3 2 2 2 2 1 -0 -0 -1 -1 -0 -0 1 1 1 0 -1 2 2 1 0 0 1 3 3 1 -3 -2
-1 -0 0 -0 -0 0 -0 -1 -1 -2 -1 -0 -2 -1 -3 0 3 5 4 2 -0 1 1 -0 0 1 -0 -0 1 1 0 0 -0 0 -1 2 2 -1 -2 -1 2 4 3 1 -0 -1 -0
-1 -1 -0 -1 -1 0 -0 -0 -1 -1 -2 -2 -2 -2 -1 -3 3 3 3 1 1 -0 0 1 2 1 -0 -0 0 1 2 1 -0 1 0 1 -2 -2 -1 0 4 4 4 2 3 1 1
0 -1 -2 -1 -1 -0 -0 -0 0 -1 -0 -3 -3 -4 -1 -2 3 3 2 2 -0 1 3 1 1 1 1 2 1 1 2 0 1 1 0 1 -1 1 1 3 4 6 4 4 5 5 5
-0 -2 -1 -2 -1 -1 0 0 -2 -0 -2 -3 -2 -3 -2 -1 2 2 2 1 1 1 6 1 2 1 2 2 2 3 2 2 2 1 3 1 2 5 5 4 4 4 2 5 4 6 5
-1 -1 -1 -0 -1 -1 -0 0 -0 -1 -2 -2 -3 -2 -0 -1 1 1 1 1 1 3 3 4 3 2 3 2 2 4 3 3 2 3 3 3 0 2 4 2 4 3 4 6 5 5 8
-1 -1 -1 -0 -1 -1 -0 -1 -0 -0 -1 -2 -2 -0 -0 -0 1 2 1 1 4 5 -0 4 3 2 2 3 3 3 4 4 5 5 4 3 3 3 3 5 4 5 6 7 7 6 7
-1 -0 -0 -1 0 -0 -1 -0 -0 0 0 -0 -1 0 0 -1 1 2 1 3 5 1 1 1 1 2 2 2 2 3 5 5 4 3 4 6 5 4 3 4 6 5 5 6 6 8 8
-2 -1 -1 -0 -0 -0 -1 1 -0 1 1 0 -0 -0 0 -2 1 1 2 4 3 1 1 2 2 3 3 1 2 2 4 5 4 4 7 7 5 2 3 4 5 5 6 0 4 3 4
-2 -0 -0 0 -0 0 -0 -0 0 0 0 0 1 1 1 -1 1 1 3 4 2 -1 1 -0 0 -0 1 1 2 2 5 3 4 4 3 5 7 4 5 4 4 5 1 4 5 6 7
-1 -1 -0 0 -0 -1 -0 -0 -0 0 1 1 1 1 2 1 1 1 4 2 1 0 1 0 1 0 -0 2 2 2 5 4 3 3 2 1 4 6 3 4 5 3 2 1 1 2 3
-1 -0 0 0 0 0 0 0 -0 0 1 1 1 2 2 1 1 1 3 1 1 2 2 1 0 0 -0 1 3 3 4 4 2 2 2 1 3 6 4 1 0 3 3 -0 2 2 0
-1 0 0 1 2 2 1 1 -0 -1 1 1 1 0 1 2 3 3 0 1 2 2 1 2 1 -1 0 2 3 2 3 2 2 2 3 0 2 6 5 2 1 3 1 0 -1 0 2
-0 0 1 3 3 2 1 1 -0 -2 -0 0 1 2 1 1 1 0 2 4 4 1 -0 0 1 1 1 2 1 2 2 2 2 2 1 -1 1 2 2 3 3 4 3 1 0 4 -0
-0 1 2 2 3 2 -0 -1 -2 -1 -1 -1 2 2 2 3 2 -0 1 3 2 2 -0 -1 1 1 1 2 1 2 2 1 1 1 -0 -0 4 2 0 0 2 3 3 2 2 0 1
0 2 2 2 1 0 -1 -3 -3 -1 -1 -1 2 2 1 1 0 -1 0 3 2 1 1 0 1 0 -0 0 0 1 1 1 2 1 1 -1 4 1 3 -1 0 2 2 2 2 1 -0
1 2 2 2 -0 -3 -4 -3 -1 0 -1 -1 -1 -1 -1 0 -0 -1 1 2 1 1 1 0 -0 0 1 1 0 1 1 1 1 2 1 0 2 3 4 -1 -1 1 -1 1 2 1 1
1 2 2 2 -0 -2 -2 -1 -0 0 -1 -3 -1 -2 -3 -0 -1 0 1 1 1 1 1 0 0 0 0 -0 -1 -1 -1 -1 -1 -0 -1 0 1 2 4 0 4 -2 -4 -2 -1 1 0
1 1 2 2 1 -0 -0 1 1 0 0 -1 -2 -2 -2 -1 -1 0 1 1 0 0 1 1 1 -0 -1 -1 -0 0 0 1 0 -1 -1 -1 0 2 4 2 -1 -1 -2 -0 0 0 -0
-1 1 1 2 2 1 0 1 1 1 -0 -1 -3 -2 -2 -2 -1 -1 0 0 1 1 0 1 1 1 -0 -2 -2 1 1 0 2 1 -1 -1 -1 1 1 3 1 -1 -2 -2 -1 -1 -2
-2 2 1 1 2 2 1 2 1 -0 -3 -4 -2 -2 -2 -1 -1 -1 0 1 -0 -0 1 1 1 1 -1 -0 -0 -0 0 -1 -0 -0 1 1 0 2 2 2 -0 -3 -4 -2 0 -2 -2
-2 1 2 0 1 2 2 1 1 -0 -2 -4 -3 -3 -2 -2 -1 -1 -1 -1 -0 -0 0 0 0 0 1 1 0 0 -0 -0 -0 -1 -0 0 0 0 0 1 -0 -3 -2 -1 -3 -3 -3
-3 -3 1 1 -0 -0 2 2 2 1 0 -3 -4 -1 -1 -2 -2 -1 -1 -1 -1 -1 -0 -0 -1 0 0 1 0 -1 -1 -1 -1 -1 -2 0 -1 -1 -1 -2 -4 -3 -2 -2 -3 -3 -2
Wind_Speed
21 20 22 23 21 21 21 22 21 23 18 20 23 24 25 22 20 18 25 25 17 12 10 9 9 9 5 4 7 9 8 7 7 3 2 1 4 5 7 5 8 16 18 21 21 17 19
22 22 22 22 23 21 22 21 21 23 19 20 21 25 23 21 23 17 23 25 18 13 10 9 9 7 5 8 4 5 7 13 9 5 1 1 2 3 7 9 10 8 15 15 17 22 22
22 24 24 23 22 23 22 22 22 25 23 21 21 22 26 18 11 14 19 25 18 9 8 7 7 4 7 10 5 5 6 11 10 5 1 4 4 5 2 7 11 13 17 18 20 20 13
26 26 27 25 26 27 25 25 25 22 25 23 24 24 25 13 12 12 17 22 13 8 8 7 7 3 5 5 6 7 7 10 10 7 6 8 8 10 12 8 11 11 12 9 14 16 18
28 26 26 26 24 26 22 23 24 25 24 23 24 26 24 21 16 10 22 18 10 8 6 7 6 6 4 5 7 7 9 8 9 9 10 7 6 11 6 8 9 9 13 17 16 14 15
32 31 29 27 28 26 23 21 21 23 25 25 25 27 22 24 16 22 23 15 8 7 9 10 8 4 7 2 6 6 7 11 5 5 4 7 6 6 6 7 10 10 15 15 20 11 18
30 30 33 31 27 27 28 23 21 22 22 25 26 26 19 21 8 27 22 14 12 6 12 6 10 5 7 7 7 7 8 7 5 4 5 6 6 11 15 16 17 18 17 18 18 18 16
32 33 30 31 28 28 27 25 23 21 22 20 24 23 18 19 10 20 17 10 9 5 4 11 7 11 8 8 4 7 9 7 6 8 8 5 11 17 14 15 15 18 20 22 19 15 15
32 32 33 34 31 28 26 26 26 24 23 19 19 19 17 19 5 18 15 10 10 8 2 3 17 7 5 13 5 10 13 7 7 7 9 10 7 5 11 16 17 18 18 19 14 3 14
34 33 32 33 33 31 29 29 26 27 23 17 17 15 14 15 13 11 10 9 11 9 1 6 6 5 8 5 5 8 14 7 6 6 8 9 12 12 13 15 11 13 17 14 13 12 6
36 34 31 33 32 32 31 30 30 22 22 16 15 15 14 13 8 10 6 11 12 5 4 9 5 9 7 6 5 8 12 7 9 5 2 3 6 8 9 6 7 6 11 15 10 10 11
36 33 33 32 32 31 32 32 24 21 19 17 15 17 13 10 10 18 12 19 13 3 4 5 6 6 5 7 4 7 7 6 0 1 4 10 14 6 5 13 7 2 11 8 7 8 3
37 32 36 32 32 32 32 32 26 23 22 19 19 17 10 9 8 18 23 20 4 4 3 7 5 6 7 6 5 6 5 4 3 2 2 2 3 6 6 3 3 2 4 3 2 2 4
36 34 36 34 31 32 30 29 26 26 27 22 23 17 13 17 10 31 32 3 4 4 2 6 5 8 5 6 3 4 2 2 5 5 2 2 1 5 8 4 5 3 4 2 3 3 4
35 35 33 33 34 32 30 28 26 28 28 24 28 21 16 22 18 33 14 2 1 3 7 8 10 5 3 3 3 3 3 3 1 8 2 2 0 4 3 5 5 5 3 6 4 2 4
34 33 34 36 35 32 28 27 26 27 30 22 15 22 20 24 30 30 1 3 1 1 6 9 4 4 5 5 4 2 4 1 2 1 1 1 2 2 2 4 4 4 8 2 1 2 4
32 33 35 35 33 29 27 25 24 24 26 20 15 10 18 27 30 4 2 3 3 2 3 2 3 4 3 4 2 3 2 2 3 1 7 3 3 1 2 2 4 2 2 0 1 2 1
33 36 38 37 34 29 24 19 18 21 18 21 21 4 22 30 4 2 1 3 3 2 3 2 3 4 2 2 4 3 3 1 8 3 2 3 3 4 3 2 3 4 6 4 3 3 4
35 40 42 41 38 29 18 13 12 14 16 24 12 12 21 7 2 1 3 3 2 1 1 2 2 2 1 2 4 2 0 2 6 3 4 4 3 2 3 2 2 4 5 5 1 1 4
37 42 47 43 27 13 6 3 5 9 17 19 8 3 3 5 4 1 5 3 2 4 3 5 4 3 3 6 6 3 1 2 5 5 5 1 4 4 3 2 3 2 6 9 5 4 5
36 41 43 37 28 8 4 1 6 15 13 10 7 4 4 1 4 5 2 3 5 4 3 6 4 3 2 4 3 3 1 1 1 6 2 2 4 4 5 4 1 3 5 7 5 4 5
35 36 43 36 24 13 8 12 22 18 12 15 6 5 6 5 3 2 3 2 4 2 6 4 5 5 4 5 4 3 2 1 1 2 2 2 4 2 2 5 4 5 7 4 6 4 7
31 33 39 36 27 19 18 22 27 20 20 17 19 15 6 3 2 1 3 4 3 1 5 6 4 6 11 5 4 5 8 8 5 2 2 2 3 1 2 2 1 3 6 6 3 3 2
28 29 33 31 25 20 18 22 19 7 13 18 15 8 5 4 3 3 2 4 5 4 4 4 6 2 3 12 9 6 9 10 11 10 4 3 2 1 1 2 2 3 2 3 3 3 2
23 23 25 26 21 17 13 20 19 20 14 12 11 5 5 5 4 4 7 5 4 10 5 4 6 7 7 2 0 0 1 1 6 6 8 4 2 2 0 1 1 2 1 0 2 1 2
18 15 22 19 20 12 12 10 8 11 11 9 9 11 9 9 3 3 2 1 3 2 2 3 6 3 1 2 1 1 2 2 1 1 3 2 4 1 1 1 2 3 3 0 1 2 3
17 13 12 13 12 8 9 10 8 9 10 11 9 10 7 9 3 4 1 2 2 2 3 0 2 1 4 2 2 1 1 2 1 1 1 1 1 0 2 2 1 2 1 1 3 3 7
15 9 9 12 8 3 6 6 2 6 12 12 7 3 4 6 6 5 4 2 2 0 1 4 2 1 1 1 1 1 1 1 2 1 1 2 1 1 1 2 1 3 2 3 3 2 5
10 7 3 6 10 8 6 6 6 4 9 11 5 6 8 4 7 10 8 6 4 3 3 3 1 1 1 2 2 2 2 2 1 2 2 3 2 1 3 1 2 3 2 2 3 2 4
Wind_Direction
349 343 345 340 337 336 343 345 340 332 338 322 307 294 287 281 280 282 251 264 249 270 282 257 270 284 274 226 229 259 237 200 219 204 116 116 247 256 249 239 241 246 255 260 261 263 267
342 342 341 340 338 335 337 332 335 329 336 333 326 326 325 310 270 288 251 249 244 264 271 248 254 272 219 238 228 239 249 222 221 230 119 76 262 269 274 261 255 292 285 278 268 260 259
341 336 333 335 333 335 335 333 331 327 332 327 325 326 326 309 317 275 254 244 239 258 245 220 252 267 219 245 231 261 249 221 229 211 207 269 264 251 294 263 264 288 287 283 266 250 245
335 332 331 332 331 328 327 329 326 330 330 335 331 326 322 311 289 274 240 231 226 231 208 211 224 221 239 249 230 251 232 217 215 226 270 279 258 259 253 261 260 261 269 272 256 245 234
330 326 324 324 323 320 322 327 326 324 328 326 327 327 325 322 251 223 206 214 208 191 198 202 210 173 245 254 234 216 219 214 215 243 268 282 242 246 244 233 258 242 256 239 262 244 226
328 328 322 322 320 322 323 324 326 322 321 324 326 327 326 332 252 209 226 224 177 152 150 145 156 155 229 216 176 194 207 207 203 212 235 216 224 233 238 226 245 251 231 254 258 237 219
328 325 326 322 317 315 314 315 317 319 320 319 323 321 328 342 240 205 211 150 138 135 187 215 185 131 124 157 185 215 207 179 187 186 229 227 228 232 236 235 247 258 272 269 269 252 239
331 326 323 319 321 320 318 317 316 316 314 316 316 318 324 315 322 212 209 173 178 150 158 224 200 206 145 176 216 192 177 186 199 235 227 229 248 257 254 249 258 259 252 259 266 261 220
335 329 326 323 322 320 319 316 315 313 307 307 297 311 318 313 273 191 201 201 176 153 167 171 212 212 218 216 234 203 186 192 219 232 236 244 256 291 259 257 253 254 231 246 243 266 206
335 329 327 322 321 323 319 321 317 315 312 305 307 315 315 320 188 202 193 182 152 162 216 156 186 194 178 158 222 205 195 197 209 236 242 258 267 270 287 270 262 274 212 203 204 228 186
334 328 323 323 322 323 324 317 320 312 313 308 309 309 307 316 255 212 229 177 167 158 212 141 141 153 154 180 145 203 199 207 241 207 209 263 289 322 295 251 201 287 154 189 203 117 144
335 328 324 325 324 323 322 318 318 317 317 306 302 296 295 275 240 243 187 164 155 199 200 145 128 160 145 213 207 150 190 205 76 253 216 265 286 281 260 303 281 348 109 132 140 155 101
334 331 327 327 329 332 330 328 328 331 323 312 296 287 283 276 223 181 162 153 173 231 164 144 141 165 201 186 200 206 172 174 209 204 207 225 245 271 294 323 180 215 208 102 141 118 89
337 332 332 332 331 333 331 331 333 325 321 313 298 284 267 245 226 160 155 187 204 75 142 109 134 140 207 171 188 192 228 183 209 228 219 297 224 352 357 351 331 337 339 337 105 113 106
338 334 334 333 332 331 333 333 332 329 323 307 302 247 242 203 186 165 159 172 55 170 131 126 129 159 183 195 230 178 31 330 85 208 282 224 95 306 294 330 340 332 33 336 92 71 92
336 331 330 334 338 333 335 337 336 336 333 353 97 113 146 163 167 165 266 78 49 21 107 144 150 218 155 173 180 181 26 309 279 293 281 189 143 354 31 346 292 269 328 298 8 120 90
334 332 336 339 335 338 339 338 343 349 1 101 79 75 138 149 162 129 345 28 360 87 83 196 147 131 146 145 110 81 54 277 304 229 197 260 255 41 235 8 343 285 314 128 60 353 104
339 340 342 337 332 334 337 339 357 5 43 80 70 65 138 148 89 27 37 2 335 65 244 117 102 100 129 142 91 100 87 20 351 297 9 360 18 60 16 329 278 283 338 323 333 53 38
343 342 340 340 340 333 333 343 356 21 86 91 79 82 136 38 112 187 227 54 256 110 45 120 96 57 207 86 93 80 257 17 4 37 13 359 32 131 139 180 170 12 355 346 41 59 50
351 349 350 351 350 330 317 322 15 71 104 97 97 100 89 39 58 314 24 357 87 19 56 71 111 111 123 72 48 111 90 359 355 11 23 7 60 31 40 44 316 316 17 11 2 34 45
359 357 2 358 355 0 347 320 114 128 111 97 69 81 124 100 68 107 62 322 103 43 38 33 74 49 100 98 79 84 71 68 95 358 41 15 76 65 45 349 313 30 28 30 59 31 48
10 4 10 14 27 49 84 119 124 107 99 94 107 133 90 119 90 72 12 22 103 124 0 29 95 46 72 82 28 132 167 57 29 13 77 29 132 145 41 352 18 67 42 38 46 30 79
13 11 15 26 42 64 89 116 127 91 78 95 106 107 105 128 105 132 38 350 60 125 59 46 72 81 74 50 49 65 80 85 72 10 69 56 136 209 113 5 18 93 15 14 10 42 8
15 20 18 29 48 59 88 111 126 112 89 110 113 113 102 123 143 81 30 55 39 24 102 27 31 59 80 104 91 93 78 76 61 50 23 111 106 17 120 219 175 75 348 305 303 352 347
13 22 18 23 39 50 94 113 98 89 82 69 63 112 118 120 123 82 53 109 93 64 60 51 29 112 137 350 214 72 60 144 30 32 33 31 131 98 234 66 91 125 142 224 296 165 332
16 39 18 15 31 50 102 131 71 58 53 51 51 85 112 126 75 81 21 345 86 70 75 51 70 93 38 47 26 28 38 356 14 358 23 19 47 305 169 222 193 94 151 198 211 211 173
11 24 40 16 24 60 124 93 76 55 28 34 85 92 81 101 119 124 125 59 79 91 80 333 348 46 28 36 46 9 66 324 276 287 343 336 360 127 162 268 235 158 189 266 233 81 166
9 27 49 37 12 76 176 171 129 15 21 38 80 82 102 105 119 138 141 142 143 163 170 150 162 190 111 113 276 146 251 121 271 289 293 283 232 194 186 218 249 151 168 231 54 128 175
0 21 28 32 31 329 293 234 236 285 9 8 32 68 107 121 134 122 116 113 126 139 122 151 45 150 161 121 184 164 194 186 310 281 171 242 252 326 241 27 110 180 256 234 205 191 205
Height
1539 1535 1531 1528 1525 1522 1517 1513 1509 1506 1502 1501 1499 1495 1493 1491 1491 1491 1491 1490 1490 1490 1491 1490 1492 1494 1494 1496 1493 1495 1497 1498 1497 1497 1496 1497 1500 1500 1497 1496 1497 1491 1488 1488 1488 1488 1488
1537 1532 1528 1526 1521 1517 1514 1511 1507 1503 1499 1496 1494 1491 1487 1484 1483 1484 1485 1485 1486 1486 1486 1488 1488 1491 1492 1495 1489 1491 1494 1496 1496 1496 1494 1497 1500 1500 1498 1496 1495 1487 1487 1485 1485 1485 1485
1534 1530 1526 1522 1517 1514 1511 1507 1503 1500 1496 1492 1489 1486 1482 1478 1478 1477 1479 1480 1482 1484 1484 1485 1487 1487 1490 1492 1488 1490 1492 1494 1495 1494 1494 1496 1498 1499 1497 1494 1493 1491 1486 1480 1478 1479 1479
1530 1526 1522 1518 1515 1511 1507 1504 1500 1496 1493 1489 1486 1482 1478 1473 1473 1471 1473 1475 1475 1480 1481 1483 1485 1486 1487 1487 1486 1489 1491 1493 1493 1492 1493 1494 1495 1496 1495 1493 1491 1489 1485 1482 1464 1468 1473
1527 1523 1520 1515 1510 1506 1503 1499 1497 1493 1489 1486 1482 1478 1474 1470 1468 1469 1468 1470 1474 1475 1479 1481 1483 1484 1485 1483 1484 1488 1490 1492 1492 1491 1492 1492 1493 1493 1492 1491 1486 1484 1474 1469 1467 1466 1466
1525 1519 1516 1512 1507 1502 1498 1496 1493 1489 1486 1482 1478 1474 1470 1465 1461 1462 1466 1468 1473 1473 1478 1480 1480 1484 1482 1483 1484 1486 1488 1490 1491 1490 1491 1491 1491 1488 1488 1489 1482 1471 1479 1468 1459 1459 1463
1523 1518 1512 1507 1503 1499 1494 1491 1488 1485 1482 1479 1475 1471 1467 1464 1458 1457 1462 1466 1476 1477 1476 1474 1472 1473 1476 1481 1484 1485 1486 1488 1490 1490 1488 1489 1488 1482 1479 1481 1479 1476 1475 1471 1460 1455 1457
1519 1513 1508 1502 1498 1494 1491 1487 1483 1481 1478 1476 1473 1469 1465 1461 1459 1456 1459 1461 1463 1467 1470 1472 1474 1473 1476 1480 1484 1484 1485 1488 1487 1485 1486 1488 1479 1470 1473 1472 1474 1472 1467 1457 1454 1450 1453
1514 1509 1503 1497 1492 1488 1485 1481 1478 1475 1473 1471 1469 1466 1462 1459 1455 1454 1457 1460 1462 1465 1467 1469 1470 1473 1474 1478 1481 1481 1484 1484 1484 1485 1483 1479 1466 1466 1470 1467 1467 1461 1459 1456 1456 1446 1447
1509 1504 1498 1492 1487 1482 1479 1475 1472 1469 1466 1464 1463 1462 1459 1457 1458 1456 1456 1460 1462 1465 1465 1467 1469 1470 1473 1476 1479 1478 1479 1482 1481 1480 1478 1476 1467 1465 1464 1460 1458 1445 1442 1451 1454 1455 1442
1505 1499 1492 1486 1482 1477 1473 1467 1463 1461 1460 1457 1457 1457 1457 1457 1455 1456 1459 1461 1463 1466 1449 1466 1470 1469 1471 1476 1477 1475 1477 1480 1475 1475 1479 1465 1465 1463 1459 1455 1452 1436 1436 1443 1453 1439 1434
1499 1493 1487 1482 1476 1472 1467 1461 1450 1455 1453 1452 1452 1452 1452 1453 1452 1454 1457 1460 1464 1464 1448 1462 1466 1467 1472 1474 1474 1474 1475 1477 1476 1476 1476 1471 1467 1467 1454 1445 1441 1435 1433 1439 1434 1432 1440
1494 1488 1482 1477 1471 1466 1461 1456 1453 1449 1447 1446 1444 1445 1448 1449 1450 1453 1456 1460 1460 1446 1456 1461 1462 1465 1468 1468 1470 1470 1470 1473 1471 1469 1468 1463 1460 1456 1454 1445 1442 1442 1436 1436 1437 1431 1438
1490 1484 1478 1473 1467 1461 1456 1452 1447 1444 1440 1437 1435 1437 1440 1444 1447 1450 1454 1458 1446 1449 1450 1456 1458 1464 1463 1464 1465 1466 1467 1466 1470 1469 1463 1457 1455 1455 1453 1449 1449 1443 1439 1431 1430 1431 1441
1487 1480 1474 1469 1462 1457 1452 1448 1442 1438 1432 1426 1422 1423 1431 1436 1444 1449 1455 1448 1444 1450 1448 1453 1460 1462 1465 1464 1463 1462 1466 1464 1462 1465 1461 1457 1457 1456 1455 1454 1453 1442 1441 1438 1434 1435 1429
1480 1475 1469 1462 1457 1451 1447 1442 1437 1432 1423 1414 1415 1420 1430 1437 1445 1451 1454 1447 1451 1450 1450 1452 1450 1457 1456 1458 1458 1457 1466 1468 1466 1465 1465 1462 1457 1457 1457 1456 1455 1451 1446 1439 1433 1435 1441
1476 1471 1465 1458 1452 1447 1443 1439 1434 1430 1424 1423 1423 1427 1439 1444 1450 1456 1450 1451 1451 1451 1452 1452 1454 1456 1456 1456 1456 1457 1467 1466 1462 1461 1461 1457 1450 1458 1454 1453 1452 1445 1440 1440 1439 1436 1424
1474 1467 1459 1453 1446 1442 1439 1437 1433 1431 1428 1429 1430 1435 1447 1451 1458 1459 1455 1456 1455 1454 1454 1454 1455 1456 1455 1456 1455 1457 1460 1462 1461 1460 1455 1456 1447 1453 1453 1453 1454 1451 1443 1440 1429 1437 1440
1471 1463 1453 1445 1439 1435 1434 1433 1434 1431 1432 1431 1437 1447 1456 1457 1457 1458 1457 1455 1456 1455 1453 1452 1455 1456 1458 1455 1456 1460 1461 1462 1461 1458 1457 1456 1453 1452 1451 1451 1449 1446 1446 1443 1441 1440 1448
1469 1460 1449 1438 1432 1428 1428 1429 1431 1433 1433 1432 1440 1451 1459 1458 1459 1457 1458 1459 1458 1456 1454 1454 1456 1456 1456 1456 1459 1462 1462 1462 1462 1460 1459 1458 1459 1461 1452 1460 1458 1448 1448 1445 1442 1440 1439
1468 1460 1448 1435 1427 1423 1425 1427 1430 1433 1435 1436 1441 1452 1457 1459 1461 1460 1462 1461 1455 1456 1455 1455 1456 1456 1455 1456 1460 1462 1463 1463 1463 1462 1461 1458 1466 1471 1466 1463 1460 1457 1455 1452 1453 1453 1447
1468 1461 1450 1437 1429 1426 1426 1429 1433 1437 1438 1439 1445 1451 1457 1460 1461 1461 1461 1460 1457 1460 1459 1456 1457 1460 1456 1457 1460 1462 1462 1462 1463 1461 1462 1464 1470 1471 1469 1461 1459 1460 1460 1457 1456 1456 1456
1470 1464 1454 1444 1438 1434 1433 1436 1439 1441 1442 1443 1448 1451 1454 1463 1463 1461 1463 1463 1461 1460 1463 1463 1462 1460 1461 1466 1466 1466 1465 1465 1465 1463 1462 1463 1468 1469 1465 1467 1459 1457 1464 1463 1462 1462 1461
1472 1467 1461 1453 1448 1445 1443 1443 1445 1446 1447 1448 1450 1452 1455 1463 1463 1464 1464 1464 1464 1463 1462 1466 1465 1463 1470 1469 1469 1469 1467 1466 1465 1466 1466 1464 1469 1471 1465 1464 1461 1467 1470 1470 1468 1467 1467
1474 1470 1466 1460 1456 1454 1453 1452 1451 1451 1452 1453 1452 1453 1455 1461 1465 1465 1465 1466 1466 1466 1467 1469 1468 1468 1470 1470 1468 1466 1466 1465 1467 1469 1467 1467 1466 1468 1461 1459 1466 1468 1470 1470 1467 1467 1471
1478 1473 1471 1466 1462 1460 1458 1459 1458 1457 1455 1455 1453 1452 1455 1459 1468 1468 1469 1468 1466 1468 1469 1472 1472 1471 1471 1471 1469 1469 1466 1472 1468 1467 1469 1468 1467 1462 1465 1462 1456 1465 1471 1472 1472 1463 1473
1480 1477 1473 1471 1468 1465 1464 1463 1462 1461 1459 1457 1456 1456 1457 1460 1467 1469 1470 1470 1471 1471 1470 1473 1472 1472 1471 1469 1469 1469 1470 1478 1469 1469 1469 1468 1468 1466 1464 1464 1463 1469 1472 1472 1465 1467 1472
1480 1479 1477 1475 1473 1469 1467 1466 1465 1463 1462 1461 1460 1459 1460 1461 1467 1468 1469 1471 1471 1471 1469 1474 1474 1473 1472 1470 1472 1474 1472 1475 1474 1475 1471 1469 1467 1466 1469 1467 1465 1471 1473 1468 1470 1470 1471
1478 1476 1476 1475 1474 1472 1470 1468 1468 1466 1465 1464 1462 1461 1461 1462 1468 1469 1470 1470 1471 1471 1472 1473 1474 1473 1473 1472 1476 1476 1472 1478 1475 1464 1477 1471 1469 1466 1468 1462 1469 1469 1470 1469 1469 1470 1471